Location: Six Mile Lake
(44.9000°N, 79.7170°W)
Time: 13:08:38
(UTC-04:00)

O/OREOS (USA 219) - Pass Details

Date: 01 July 2022
Orbit: 621 x 646 km, 72.0° (Epoch: 22 May)

Event Time Altitude Azimuth Distance (km) Brightness Sun altitude
Rises 01:36:11 0° 337° (NNW) 2,963 ? -21.9°
Reaches altitude 10° 01:38:28 10° 339° (NNW) 2,051 ? -21.9°
Maximum altitude 01:43:05 74° 64° (ENE) 675 ? -21.8°
Enters shadow 01:44:12 50° 135° (SE) 823 ? -21.8°
